owner,sensor,date,latitude,longitude,vertical_datum,sea_water_temperature,qcFlag 
SCCF RECON,ioos:station:SCCF:56:1,2019-03-01T05:00:00Z,26.4645,-82.1044,1.64,24.71,11111222 
SCCF RECON,ioos:station:SCCF:56:1,2019-03-01T06:00:00Z,26.4645,-82.1044,1.64,24.55,11111222 
SCCF RECON,ioos:station:SCCF:56:1,2019-03-01T07:00:00Z,26.4645,-82.1044,1.64,24.48,11111222 
SCCF RECON,ioos:station:SCCF:56:1,2019-03-01T08:00:00Z,26.4645,-82.1044,1.64,24.37,11111222 
SCCF RECON,ioos:station:SCCF:56:1,2019-03-01T09:00:00Z,26.4645,-82.1044,1.64,24.2,11111222 
SCCF RECON,ioos:station:SCCF:56:1,2019-03-01T10:00:00Z,26.4645,-82.1044,1.64,23.95,11111222 
SCCF RECON,ioos:station:SCCF:56:1,2019-03-01T11:00:00Z,26.4645,-82.1044,1.64,23.88,11111222 
SCCF RECON,ioos:station:SCCF:56:1,2019-03-01T12:00:00Z,26.4645,-82.1044,1.64,23.83,11111222 
SCCF RECON,ioos:station:SCCF:56:1,2019-03-01T13:00:00Z,26.4645,-82.1044,1.64,23.69,11111222 
SCCF RECON,ioos:station:SCCF:56:1,2019-03-01T14:00:00Z,26.4645,-82.1044,1.64,23.73,11111222 
SCCF RECON,ioos:station:SCCF:56:1,2019-03-01T15:00:00Z,26.4645,-82.1044,1.64,24.02,11111222 
SCCF RECON,ioos:station:SCCF:56:1,2019-03-01T16:00:00Z,26.4645,-82.1044,1.64,24.53,11111222 
SCCF RECON,ioos:station:SCCF:56:1,2019-03-01T17:00:00Z,26.4645,-82.1044,1.64,24.86,11111222 
SCCF RECON,ioos:station:SCCF:56:1,2019-03-01T18:00:00Z,26.4645,-82.1044,1.64,24.96,11111222 
SCCF RECON,ioos:station:SCCF:56:1,2019-03-01T19:00:00Z,26.4645,-82.1044,1.64,25.17,11111222 
SCCF RECON,ioos:station:SCCF:56:1,2019-03-01T20:00:00Z,26.4645,-82.1044,1.64,25.4,11111222 
SCCF RECON,ioos:station:SCCF:56:1,2019-03-01T21:00:00Z,26.4645,-82.1044,1.64,25.58,11111222 
SCCF RECON,ioos:station:SCCF:56:1,2019-03-01T22:00:00Z,26.4645,-82.1044,1.64,25.7,11111222 
SCCF RECON,ioos:station:SCCF:56:1,2019-03-01T23:00:00Z,26.4645,-82.1044,1.64,25.76,11111222 
SCCF RECON,ioos:station:SCCF:56:1,2019-03-02T05:00:00Z,26.4645,-82.1044,1.64,24.97,11111222 
SCCF RECON,ioos:station:SCCF:56:1,2019-03-02T06:00:00Z,26.4645,-82.1044,1.64,25.07,11111222 
SCCF RECON,ioos:station:SCCF:56:1,2019-03-02T07:00:00Z,26.4645,-82.1044,1.64,25.03,11111222 
SCCF RECON,ioos:station:SCCF:56:1,2019-03-02T08:00:00Z,26.4645,-82.1044,1.64,24.95,11111222 
SCCF RECON,ioos:station:SCCF:56:1,2019-03-02T09:00:00Z,26.4645,-82.1044,1.64,24.86,11111222 
SCCF RECON,ioos:station:SCCF:56:1,2019-03-02T10:00:00Z,26.4645,-82.1044,1.64,24.86,11111222 
SCCF RECON,ioos:station:SCCF:56:1,2019-03-02T11:00:00Z,26.4645,-82.1044,1.64,24.78,11111222 
SCCF RECON,ioos:station:SCCF:56:1,2019-03-02T12:00:00Z,26.4645,-82.1044,1.64,24.42,11111222 
SCCF RECON,ioos:station:SCCF:56:1,2019-03-02T13:00:00Z,26.4645,-82.1044,1.64,24.01,11111222 
SCCF RECON,ioos:station:SCCF:56:1,2019-03-02T14:00:00Z,26.4645,-82.1044,1.64,24.29,11111222 
SCCF RECON,ioos:station:SCCF:56:1,2019-03-02T15:00:00Z,26.4645,-82.1044,1.64,24.59,11111222 
SCCF RECON,ioos:station:SCCF:56:1,2019-03-02T16:00:00Z,26.4645,-82.1044,1.64,24.94,11111222 
SCCF RECON,ioos:station:SCCF:56:1,2019-03-02T17:00:00Z,26.4645,-82.1044,1.64,25.37,11111222 
SCCF RECON,ioos:station:SCCF:56:1,2019-03-02T18:00:00Z,26.4645,-82.1044,1.64,25.61,11111222 
SCCF RECON,ioos:station:SCCF:56:1,2019-03-02T19:00:00Z,26.4645,-82.1044,1.64,25.62,11111222 
SCCF RECON,ioos:station:SCCF:56:1,2019-03-02T20:00:00Z,26.4645,-82.1044,1.64,25.71,11111222 
SCCF RECON,ioos:station:SCCF:56:1,2019-03-02T21:00:00Z,26.4645,-82.1044,1.64,26.23,11111222 
SCCF RECON,ioos:station:SCCF:56:1,2019-03-02T22:00:00Z,26.4645,-82.1044,1.64,26.54,11111222 
SCCF RECON,ioos:station:SCCF:56:1,2019-03-02T23:00:00Z,26.4645,-82.1044,1.64,26.52,11111222 
SCCF RECON,ioos:station:SCCF:56:1,2019-03-03T05:00:00Z,26.4645,-82.1044,1.64,25.66,11111222 
SCCF RECON,ioos:station:SCCF:56:1,2019-03-03T06:00:00Z,26.4645,-82.1044,1.64,25.53,11111222 
SCCF RECON,ioos:station:SCCF:56:1,2019-03-03T07:00:00Z,26.4645,-82.1044,1.64,25.53,11111222 
SCCF RECON,ioos:station:SCCF:56:1,2019-03-03T08:00:00Z,26.4645,-82.1044,1.64,25.56,11111222 
SCCF RECON,ioos:station:SCCF:56:1,2019-03-03T09:00:00Z,26.4645,-82.1044,1.64,25.45,11111222 
SCCF RECON,ioos:station:SCCF:56:1,2019-03-03T10:00:00Z,26.4645,-82.1044,1.64,25.33,11111222 
SCCF RECON,ioos:station:SCCF:56:1,2019-03-03T11:00:00Z,26.4645,-82.1044,1.64,25.22,11111222 
SCCF RECON,ioos:station:SCCF:56:1,2019-03-03T12:00:00Z,26.4645,-82.1044,1.64,25.11,11111222 
SCCF RECON,ioos:station:SCCF:56:1,2019-03-03T13:00:00Z,26.4645,-82.1044,1.64,24.84,11111222 
SCCF RECON,ioos:station:SCCF:56:1,2019-03-03T14:00:00Z,26.4645,-82.1044,1.64,25.03,11111222 
SCCF RECON,ioos:station:SCCF:56:1,2019-03-03T15:00:00Z,26.4645,-82.1044,1.64,25.22,11111222 
SCCF RECON,ioos:station:SCCF:56:1,2019-03-03T16:00:00Z,26.4645,-82.1044,1.64,25.81,11111222 
SCCF RECON,ioos:station:SCCF:56:1,2019-03-03T17:00:00Z,26.4645,-82.1044,1.64,26.08,11111222 
SCCF RECON,ioos:station:SCCF:56:1,2019-03-03T18:00:00Z,26.4645,-82.1044,1.64,26.4,11111222 
SCCF RECON,ioos:station:SCCF:56:1,2019-03-03T19:00:00Z,26.4645,-82.1044,1.64,26.49,11111222 
SCCF RECON,ioos:station:SCCF:56:1,2019-03-03T20:00:00Z,26.4645,-82.1044,1.64,26.32,11111222 
SCCF RECON,ioos:station:SCCF:56:1,2019-03-03T21:00:00Z,26.4645,-82.1044,1.64,26.99,11111222 
SCCF RECON,ioos:station:SCCF:56:1,2019-03-03T22:00:00Z,26.4645,-82.1044,1.64,27.13,11111222 
SCCF RECON,ioos:station:SCCF:56:1,2019-03-03T23:00:00Z,26.4645,-82.1044,1.64,26.99,11111222 
SCCF RECON,ioos:station:SCCF:56:1,2019-03-04T05:00:00Z,26.4645,-82.1044,1.64,25.69,11111222 
SCCF RECON,ioos:station:SCCF:56:1,2019-03-04T06:00:00Z,26.4645,-82.1044,1.64,25.57,11111222 
SCCF RECON,ioos:station:SCCF:56:1,2019-03-04T07:00:00Z,26.4645,-82.1044,1.64,25.54,11111222 
SCCF RECON,ioos:station:SCCF:56:1,2019-03-04T08:00:00Z,26.4645,-82.1044,1.64,25.67,11111222 
SCCF RECON,ioos:station:SCCF:56:1,2019-03-04T09:00:00Z,26.4645,-82.1044,1.64,25.68,11111222 
SCCF RECON,ioos:station:SCCF:56:1,2019-03-04T10:00:00Z,26.4645,-82.1044,1.64,25.64,11111222 
SCCF RECON,ioos:station:SCCF:56:1,2019-03-04T11:00:00Z,26.4645,-82.1044,1.64,25.55,11111222 
SCCF RECON,ioos:station:SCCF:56:1,2019-03-04T12:00:00Z,26.4645,-82.1044,1.64,25.45,11111222 
SCCF RECON,ioos:station:SCCF:56:1,2019-03-04T13:00:00Z,26.4645,-82.1044,1.64,25.44,11111222 
SCCF RECON,ioos:station:SCCF:56:1,2019-03-04T14:00:00Z,26.4645,-82.1044,1.64,25.48,11111222 
SCCF RECON,ioos:station:SCCF:56:1,2019-03-04T15:00:00Z,26.4645,-82.1044,1.64,25.65,11111222 
SCCF RECON,ioos:station:SCCF:56:1,2019-03-04T16:00:00Z,26.4645,-82.1044,1.64,25.99,11111222 
SCCF RECON,ioos:station:SCCF:56:1,2019-03-04T17:00:00Z,26.4645,-82.1044,1.64,26.27,11111222 
SCCF RECON,ioos:station:SCCF:56:1,2019-03-04T18:00:00Z,26.4645,-82.1044,1.64,26.34,11111222 
SCCF RECON,ioos:station:SCCF:56:1,2019-03-04T19:00:00Z,26.4645,-82.1044,1.64,26.6,11111222 
SCCF RECON,ioos:station:SCCF:56:1,2019-03-04T20:00:00Z,26.4645,-82.1044,1.64,26.9,11111222 
SCCF RECON,ioos:station:SCCF:56:1,2019-03-04T21:00:00Z,26.4645,-82.1044,1.64,27.17,11111222 
SCCF RECON,ioos:station:SCCF:56:1,2019-03-04T22:00:00Z,26.4645,-82.1044,1.64,27.34,11111222 
SCCF RECON,ioos:station:SCCF:56:1,2019-03-04T23:00:00Z,26.4645,-82.1044,1.64,27.41,11111222 
SCCF RECON,ioos:station:SCCF:56:1,2019-03-05T05:00:00Z,26.4645,-82.1044,1.64,26.05,11111222 
SCCF RECON,ioos:station:SCCF:56:1,2019-03-05T06:00:00Z,26.4645,-82.1044,1.64,25.92,11111222 
SCCF RECON,ioos:station:SCCF:56:1,2019-03-05T07:00:00Z,26.4645,-82.1044,1.64,25.9,11111222 
SCCF RECON,ioos:station:SCCF:56:1,2019-03-05T08:00:00Z,26.4645,-82.1044,1.64,25.94,11111222 
SCCF RECON,ioos:station:SCCF:56:1,2019-03-05T09:00:00Z,26.4645,-82.1044,1.64,25.96,11111222 
SCCF RECON,ioos:station:SCCF:56:1,2019-03-05T10:00:00Z,26.4645,-82.1044,1.64,25.84,11111222 
SCCF RECON,ioos:station:SCCF:56:1,2019-03-05T11:00:00Z,26.4645,-82.1044,1.64,25.64,11111222 
SCCF RECON,ioos:station:SCCF:56:1,2019-03-05T12:00:00Z,26.4645,-82.1044,1.64,25.44,11111222 
SCCF RECON,ioos:station:SCCF:56:1,2019-03-05T13:00:00Z,26.4645,-82.1044,1.64,25.23,11111222 
SCCF RECON,ioos:station:SCCF:56:1,2019-03-05T14:00:00Z,26.4645,-82.1044,1.64,25.38,11111222 
SCCF RECON,ioos:station:SCCF:56:1,2019-03-05T15:00:00Z,26.4645,-82.1044,1.64,25.38,11111222 
SCCF RECON,ioos:station:SCCF:56:1,2019-03-05T16:00:00Z,26.4645,-82.1044,1.64,24.98,11111222 
SCCF RECON,ioos:station:SCCF:56:1,2019-03-05T17:00:00Z,26.4645,-82.1044,1.64,25.01,11111222 
SCCF RECON,ioos:station:SCCF:56:1,2019-03-05T18:00:00Z,26.4645,-82.1044,1.64,24.79,11111222 
SCCF RECON,ioos:station:SCCF:56:1,2019-03-05T19:00:00Z,26.4645,-82.1044,1.64,24.97,11111222 
SCCF RECON,ioos:station:SCCF:56:1,2019-03-05T20:00:00Z,26.4645,-82.1044,1.64,25.18,11111222 
SCCF RECON,ioos:station:SCCF:56:1,2019-03-05T21:00:00Z,26.4645,-82.1044,1.64,25.26,11111222 
SCCF RECON,ioos:station:SCCF:56:1,2019-03-05T23:00:00Z,26.4645,-82.1044,1.64,24.86,11111222 
SCCF RECON,ioos:station:SCCF:56:1,2019-03-06T05:00:00Z,26.4645,-82.1044,1.64,21.49,11111222 
SCCF RECON,ioos:station:SCCF:56:1,2019-03-06T06:00:00Z,26.4645,-82.1044,1.64,21.58,11111222 
SCCF RECON,ioos:station:SCCF:56:1,2019-03-06T07:00:00Z,26.4645,-82.1044,1.64,22.13,11111222 
SCCF RECON,ioos:station:SCCF:56:1,2019-03-06T08:00:00Z,26.4645,-82.1044,1.64,22.1,11111222 
SCCF RECON,ioos:station:SCCF:56:1,2019-03-06T09:00:00Z,26.4645,-82.1044,1.64,21.69,11111222 
SCCF RECON,ioos:station:SCCF:56:1,2019-03-06T10:00:00Z,26.4645,-82.1044,1.64,21.04,11111222 
SCCF RECON,ioos:station:SCCF:56:1,2019-03-06T11:00:00Z,26.4645,-82.1044,1.64,20.49,11111222 
SCCF RECON,ioos:station:SCCF:56:1,2019-03-06T12:00:00Z,26.4645,-82.1044,1.64,19.48,11111222 
SCCF RECON,ioos:station:SCCF:56:1,2019-03-06T13:00:00Z,26.4645,-82.1044,1.64,18.71,11111222 
SCCF RECON,ioos:station:SCCF:56:1,2019-03-06T14:00:00Z,26.4645,-82.1044,1.64,18.19,11111222 
SCCF RECON,ioos:station:SCCF:56:1,2019-03-06T15:00:00Z,26.4645,-82.1044,1.64,18.09,11111222 
SCCF RECON,ioos:station:SCCF:56:1,2019-03-06T16:00:00Z,26.4645,-82.1044,1.64,19.69,11111222 
SCCF RECON,ioos:station:SCCF:56:1,2019-03-06T17:00:00Z,26.4645,-82.1044,1.64,19.88,11111222 
SCCF RECON,ioos:station:SCCF:56:1,2019-03-06T18:00:00Z,26.4645,-82.1044,1.64,20.93,11111222 
SCCF RECON,ioos:station:SCCF:56:1,2019-03-06T19:00:00Z,26.4645,-82.1044,1.64,21.61,11111222 
SCCF RECON,ioos:station:SCCF:56:1,2019-03-06T20:00:00Z,26.4645,-82.1044,1.64,21.35,11111222 
SCCF RECON,ioos:station:SCCF:56:1,2019-03-06T21:00:00Z,26.4645,-82.1044,1.64,21.68,11111222 
SCCF RECON,ioos:station:SCCF:56:1,2019-03-06T22:00:00Z,26.4645,-82.1044,1.64,21.49,11111222 
SCCF RECON,ioos:station:SCCF:56:1,2019-03-06T23:00:00Z,26.4645,-82.1044,1.64,21.44,11111222 
SCCF RECON,ioos:station:SCCF:56:1,2019-03-07T05:00:00Z,26.4645,-82.1044,1.64,20.5,11111222 
SCCF RECON,ioos:station:SCCF:56:1,2019-03-07T06:00:00Z,26.4645,-82.1044,1.64,20.03,11111222 
SCCF RECON,ioos:station:SCCF:56:1,2019-03-07T07:00:00Z,26.4645,-82.1044,1.64,19.6,11111222 
SCCF RECON,ioos:station:SCCF:56:1,2019-03-07T08:00:00Z,26.4645,-82.1044,1.64,19.65,11111222 
SCCF RECON,ioos:station:SCCF:56:1,2019-03-07T09:00:00Z,26.4645,-82.1044,1.64,19.38,11111222 
SCCF RECON,ioos:station:SCCF:56:1,2019-03-07T10:00:00Z,26.4645,-82.1044,1.64,18.98,11111222 
SCCF RECON,ioos:station:SCCF:56:1,2019-03-07T11:00:00Z,26.4645,-82.1044,1.64,18.5,11111222 
SCCF RECON,ioos:station:SCCF:56:1,2019-03-07T12:00:00Z,26.4645,-82.1044,1.64,18.01,11111222 
SCCF RECON,ioos:station:SCCF:56:1,2019-03-07T13:00:00Z,26.4645,-82.1044,1.64,17.52,11111222 
SCCF RECON,ioos:station:SCCF:56:1,2019-03-07T14:00:00Z,26.4645,-82.1044,1.64,17.41,11111222 
SCCF RECON,ioos:station:SCCF:56:1,2019-03-07T15:00:00Z,26.4645,-82.1044,1.64,18.44,11111222 
SCCF RECON,ioos:station:SCCF:56:1,2019-03-07T16:00:00Z,26.4645,-82.1044,1.64,18.98,11111222 
SCCF RECON,ioos:station:SCCF:56:1,2019-03-07T17:00:00Z,26.4645,-82.1044,1.64,19.75,11111222 
SCCF RECON,ioos:station:SCCF:56:1,2019-03-07T18:00:00Z,26.4645,-82.1044,1.64,20.45,11111222 
SCCF RECON,ioos:station:SCCF:56:1,2019-03-07T19:00:00Z,26.4645,-82.1044,1.64,20.78,11111222 
SCCF RECON,ioos:station:SCCF:56:1,2019-03-07T20:00:00Z,26.4645,-82.1044,1.64,20.69,11111222 
SCCF RECON,ioos:station:SCCF:56:1,2019-03-07T21:00:00Z,26.4645,-82.1044,1.64,20.66,11111222 
SCCF RECON,ioos:station:SCCF:56:1,2019-03-07T22:00:00Z,26.4645,-82.1044,1.64,21.01,11111222 
SCCF RECON,ioos:station:SCCF:56:1,2019-03-07T23:00:00Z,26.4645,-82.1044,1.64,20.99,11111222 
SCCF RECON,ioos:station:SCCF:56:1,2019-03-08T05:00:00Z,26.4645,-82.1044,1.64,20.29,11111222 
SCCF RECON,ioos:station:SCCF:56:1,2019-03-08T06:00:00Z,26.4645,-82.1044,1.64,20.28,11111222 
SCCF RECON,ioos:station:SCCF:56:1,2019-03-08T07:00:00Z,26.4645,-82.1044,1.64,20.16,11111222 
SCCF RECON,ioos:station:SCCF:56:1,2019-03-08T08:00:00Z,26.4645,-82.1044,1.64,20.07,11111222 
SCCF RECON,ioos:station:SCCF:56:1,2019-03-08T09:00:00Z,26.4645,-82.1044,1.64,20.07,11111222 
SCCF RECON,ioos:station:SCCF:56:1,2019-03-08T10:00:00Z,26.4645,-82.1044,1.64,19.86,11111222 
SCCF RECON,ioos:station:SCCF:56:1,2019-03-08T11:00:00Z,26.4645,-82.1044,1.64,19.71,11111222 
SCCF RECON,ioos:station:SCCF:56:1,2019-03-08T12:00:00Z,26.4645,-82.1044,1.64,19.52,11111222 
SCCF RECON,ioos:station:SCCF:56:1,2019-03-08T13:00:00Z,26.4645,-82.1044,1.64,19.41,11111222 
SCCF RECON,ioos:station:SCCF:56:1,2019-03-08T14:00:00Z,26.4645,-82.1044,1.64,19.26,11111222 
SCCF RECON,ioos:station:SCCF:56:1,2019-03-08T16:00:00Z,26.4645,-82.1044,1.64,20.71,11111222 
SCCF RECON,ioos:station:SCCF:56:1,2019-03-08T17:00:00Z,26.4645,-82.1044,1.64,21.16,11111222 
SCCF RECON,ioos:station:SCCF:56:1,2019-03-08T18:00:00Z,26.4645,-82.1044,1.64,21.22,11111222 
SCCF RECON,ioos:station:SCCF:56:1,2019-03-08T19:00:00Z,26.4645,-82.1044,1.64,21.34,11111222 
SCCF RECON,ioos:station:SCCF:56:1,2019-03-08T20:00:00Z,26.4645,-82.1044,1.64,21.92,11111222 
SCCF RECON,ioos:station:SCCF:56:1,2019-03-08T21:00:00Z,26.4645,-82.1044,1.64,22.03,11111222 
SCCF RECON,ioos:station:SCCF:56:1,2019-03-08T22:00:00Z,26.4645,-82.1044,1.64,21.88,11111222 
SCCF RECON,ioos:station:SCCF:56:1,2019-03-08T23:00:00Z,26.4645,-82.1044,1.64,22.17,11111222 
SCCF RECON,ioos:station:SCCF:56:1,2019-03-09T05:00:00Z,26.4645,-82.1044,1.64,21.8,11111222 
SCCF RECON,ioos:station:SCCF:56:1,2019-03-09T06:00:00Z,26.4645,-82.1044,1.64,21.61,11111222 
SCCF RECON,ioos:station:SCCF:56:1,2019-03-09T07:00:00Z,26.4645,-82.1044,1.64,21.46,11111222 
SCCF RECON,ioos:station:SCCF:56:1,2019-03-09T08:00:00Z,26.4645,-82.1044,1.64,21.45,11111222 
SCCF RECON,ioos:station:SCCF:56:1,2019-03-09T09:00:00Z,26.4645,-82.1044,1.64,21.44,11111222 
SCCF RECON,ioos:station:SCCF:56:1,2019-03-09T10:00:00Z,26.4645,-82.1044,1.64,21.45,11111222 
SCCF RECON,ioos:station:SCCF:56:1,2019-03-09T11:00:00Z,26.4645,-82.1044,1.64,21.45,11111222 
SCCF RECON,ioos:station:SCCF:56:1,2019-03-09T12:00:00Z,26.4645,-82.1044,1.64,21.39,11111222 
SCCF RECON,ioos:station:SCCF:56:1,2019-03-09T13:00:00Z,26.4645,-82.1044,1.64,21.39,11111222 
SCCF RECON,ioos:station:SCCF:56:1,2019-03-09T14:00:00Z,26.4645,-82.1044,1.64,21.52,11111222 
SCCF RECON,ioos:station:SCCF:56:1,2019-03-09T15:00:00Z,26.4645,-82.1044,1.64,22.03,11111222 
SCCF RECON,ioos:station:SCCF:56:1,2019-03-09T16:00:00Z,26.4645,-82.1044,1.64,22.75,11111222 
SCCF RECON,ioos:station:SCCF:56:1,2019-03-09T17:00:00Z,26.4645,-82.1044,1.64,22.63,11111222 
SCCF RECON,ioos:station:SCCF:56:1,2019-03-09T18:00:00Z,26.4645,-82.1044,1.64,22.77,11111222 
SCCF RECON,ioos:station:SCCF:56:1,2019-03-09T19:00:00Z,26.4645,-82.1044,1.64,22.87,11111222 
SCCF RECON,ioos:station:SCCF:56:1,2019-03-09T20:00:00Z,26.4645,-82.1044,1.64,23.2,11111222 
SCCF RECON,ioos:station:SCCF:56:1,2019-03-09T21:00:00Z,26.4645,-82.1044,1.64,23.36,11111222 
SCCF RECON,ioos:station:SCCF:56:1,2019-03-09T22:00:00Z,26.4645,-82.1044,1.64,23.61,11111222 
SCCF RECON,ioos:station:SCCF:56:1,2019-03-09T23:00:00Z,26.4645,-82.1044,1.64,23.72,11111222 
SCCF RECON,ioos:station:SCCF:56:1,2019-03-10T05:00:00Z,26.4645,-82.1044,1.64,23.12,11111222 
SCCF RECON,ioos:station:SCCF:56:1,2019-03-10T06:00:00Z,26.4645,-82.1044,1.64,22.76,11111222 
SCCF RECON,ioos:station:SCCF:56:1,2019-03-10T07:00:00Z,26.4645,-82.1044,1.64,22.6,11111222 
SCCF RECON,ioos:station:SCCF:56:1,2019-03-10T08:00:00Z,26.4645,-82.1044,1.64,22.44,11111222 
SCCF RECON,ioos:station:SCCF:56:1,2019-03-10T09:00:00Z,26.4645,-82.1044,1.64,22.33,11111222 
SCCF RECON,ioos:station:SCCF:56:1,2019-03-10T10:00:00Z,26.4645,-82.1044,1.64,22.4,11111222 
SCCF RECON,ioos:station:SCCF:56:1,2019-03-10T11:00:00Z,26.4645,-82.1044,1.64,22.52,11111222 
SCCF RECON,ioos:station:SCCF:56:1,2019-03-10T12:00:00Z,26.4645,-82.1044,1.64,22.69,11111222 
SCCF RECON,ioos:station:SCCF:56:1,2019-03-10T13:00:00Z,26.4645,-82.1044,1.64,22.73,11111222 
SCCF RECON,ioos:station:SCCF:56:1,2019-03-10T14:00:00Z,26.4645,-82.1044,1.64,22.86,11111222 
SCCF RECON,ioos:station:SCCF:56:1,2019-03-10T15:00:00Z,26.4645,-82.1044,1.64,23.15,11111222 
SCCF RECON,ioos:station:SCCF:56:1,2019-03-10T16:00:00Z,26.4645,-82.1044,1.64,23.86,11111222 
SCCF RECON,ioos:station:SCCF:56:1,2019-03-10T17:00:00Z,26.4645,-82.1044,1.64,23.87,11111222 
SCCF RECON,ioos:station:SCCF:56:1,2019-03-10T18:00:00Z,26.4645,-82.1044,1.64,23.75,11111222 
SCCF RECON,ioos:station:SCCF:56:1,2019-03-10T19:00:00Z,26.4645,-82.1044,1.64,23.81,11111222 
SCCF RECON,ioos:station:SCCF:56:1,2019-03-10T20:00:00Z,26.4645,-82.1044,1.64,24.04,11111222 
SCCF RECON,ioos:station:SCCF:56:1,2019-03-10T21:00:00Z,26.4645,-82.1044,1.64,24.66,11111222 
SCCF RECON,ioos:station:SCCF:56:1,2019-03-10T22:00:00Z,26.4645,-82.1044,1.64,24.49,11111222 
SCCF RECON,ioos:station:SCCF:56:1,2019-03-11T04:00:00Z,26.4645,-82.1044,1.64,25.81,11111222 
SCCF RECON,ioos:station:SCCF:56:1,2019-03-11T05:00:00Z,26.4645,-82.1044,1.64,25.11,11111222 
SCCF RECON,ioos:station:SCCF:56:1,2019-03-11T06:00:00Z,26.4645,-82.1044,1.64,24.12,11111222 
SCCF RECON,ioos:station:SCCF:56:1,2019-03-11T07:00:00Z,26.4645,-82.1044,1.64,23.86,11111222 
SCCF RECON,ioos:station:SCCF:56:1,2019-03-11T08:00:00Z,26.4645,-82.1044,1.64,23.74,11111222 
SCCF RECON,ioos:station:SCCF:56:1,2019-03-11T09:00:00Z,26.4645,-82.1044,1.64,23.54,11111222 
SCCF RECON,ioos:station:SCCF:56:1,2019-03-11T10:00:00Z,26.4645,-82.1044,1.64,23.65,11111222 
SCCF RECON,ioos:station:SCCF:56:1,2019-03-11T11:00:00Z,26.4645,-82.1044,1.64,23.57,11111222 
SCCF RECON,ioos:station:SCCF:56:1,2019-03-11T12:00:00Z,26.4645,-82.1044,1.64,23.74,11111222 
SCCF RECON,ioos:station:SCCF:56:1,2019-03-11T13:00:00Z,26.4645,-82.1044,1.64,23.92,11111222 
SCCF RECON,ioos:station:SCCF:56:1,2019-03-11T14:00:00Z,26.4645,-82.1044,1.64,24.25,11111222 
SCCF RECON,ioos:station:SCCF:56:1,2019-03-11T15:00:00Z,26.4645,-82.1044,1.64,24.51,11111222 
SCCF RECON,ioos:station:SCCF:56:1,2019-03-11T16:00:00Z,26.4645,-82.1044,1.64,24.93,11111222 
SCCF RECON,ioos:station:SCCF:56:1,2019-03-11T17:00:00Z,26.4645,-82.1044,1.64,25.15,11111222 
SCCF RECON,ioos:station:SCCF:56:1,2019-03-11T18:00:00Z,26.4645,-82.1044,1.64,25.17,11111222 
SCCF RECON,ioos:station:SCCF:56:1,2019-03-11T19:00:00Z,26.4645,-82.1044,1.64,25.07,11111222 
SCCF RECON,ioos:station:SCCF:56:1,2019-03-11T20:00:00Z,26.4645,-82.1044,1.64,25.01,11111222 
SCCF RECON,ioos:station:SCCF:56:1,2019-03-11T21:00:00Z,26.4645,-82.1044,1.64,25.16,11111222 
SCCF RECON,ioos:station:SCCF:56:1,2019-03-11T22:00:00Z,26.4645,-82.1044,1.64,25.4,11111222 
SCCF RECON,ioos:station:SCCF:56:1,2019-03-11T23:00:00Z,26.4645,-82.1044,1.64,25.7,11111222 
SCCF RECON,ioos:station:SCCF:56:1,2019-03-12T04:00:00Z,26.4645,-82.1044,1.64,26.54,11111222 
SCCF RECON,ioos:station:SCCF:56:1,2019-03-12T05:00:00Z,26.4645,-82.1044,1.64,26.43,11111222 
SCCF RECON,ioos:station:SCCF:56:1,2019-03-12T06:00:00Z,26.4645,-82.1044,1.64,25.69,11111222 
SCCF RECON,ioos:station:SCCF:56:1,2019-03-12T07:00:00Z,26.4645,-82.1044,1.64,24.57,11111222 
SCCF RECON,ioos:station:SCCF:56:1,2019-03-12T08:00:00Z,26.4645,-82.1044,1.64,24.64,11111222 
SCCF RECON,ioos:station:SCCF:56:1,2019-03-12T09:00:00Z,26.4645,-82.1044,1.64,24.37,11111222 
SCCF RECON,ioos:station:SCCF:56:1,2019-03-12T10:00:00Z,26.4645,-82.1044,1.64,24.61,11111222 
SCCF RECON,ioos:station:SCCF:56:1,2019-03-12T11:00:00Z,26.4645,-82.1044,1.64,24.51,11111222 
SCCF RECON,ioos:station:SCCF:56:1,2019-03-12T12:00:00Z,26.4645,-82.1044,1.64,24.56,11111222 
SCCF RECON,ioos:station:SCCF:56:1,2019-03-12T13:00:00Z,26.4645,-82.1044,1.64,24.6,11111222 
SCCF RECON,ioos:station:SCCF:56:1,2019-03-12T14:00:00Z,26.4645,-82.1044,1.64,24.74,11111222 
SCCF RECON,ioos:station:SCCF:56:1,2019-03-12T15:00:00Z,26.4645,-82.1044,1.64,24.8,11111222 
SCCF RECON,ioos:station:SCCF:56:1,2019-03-12T16:00:00Z,26.4645,-82.1044,1.64,24.98,11111222 
SCCF RECON,ioos:station:SCCF:56:1,2019-03-12T17:00:00Z,26.4645,-82.1044,1.64,25.59,11111222 
SCCF RECON,ioos:station:SCCF:56:1,2019-03-12T18:00:00Z,26.4645,-82.1044,1.64,25.85,11111222 
SCCF RECON,ioos:station:SCCF:56:1,2019-03-12T19:00:00Z,26.4645,-82.1044,1.64,25.84,11111222 
SCCF RECON,ioos:station:SCCF:56:1,2019-03-12T20:00:00Z,26.4645,-82.1044,1.64,25.79,11111222 
SCCF RECON,ioos:station:SCCF:56:1,2019-03-12T21:00:00Z,26.4645,-82.1044,1.64,25.81,11111222 
SCCF RECON,ioos:station:SCCF:56:1,2019-03-12T22:00:00Z,26.4645,-82.1044,1.64,26.14,11111222 
SCCF RECON,ioos:station:SCCF:56:1,2019-03-12T23:00:00Z,26.4645,-82.1044,1.64,26.32,11111222 
SCCF RECON,ioos:station:SCCF:56:1,2019-03-13T04:00:00Z,26.4645,-82.1044,1.64,26.46,11111222 
SCCF RECON,ioos:station:SCCF:56:1,2019-03-13T05:00:00Z,26.4645,-82.1044,1.64,26.23,11111222 
SCCF RECON,ioos:station:SCCF:56:1,2019-03-13T06:00:00Z,26.4645,-82.1044,1.64,26.1,11111222 
SCCF RECON,ioos:station:SCCF:56:1,2019-03-13T07:00:00Z,26.4645,-82.1044,1.64,25.13,11111222 
SCCF RECON,ioos:station:SCCF:56:1,2019-03-13T08:00:00Z,26.4645,-82.1044,1.64,24.63,11111222 
SCCF RECON,ioos:station:SCCF:56:1,2019-03-13T09:00:00Z,26.4645,-82.1044,1.64,24.42,11111222 
SCCF RECON,ioos:station:SCCF:56:1,2019-03-13T10:00:00Z,26.4645,-82.1044,1.64,24.21,11111222 
SCCF RECON,ioos:station:SCCF:56:1,2019-03-13T11:00:00Z,26.4645,-82.1044,1.64,24.14,11111222 
SCCF RECON,ioos:station:SCCF:56:1,2019-03-13T12:00:00Z,26.4645,-82.1044,1.64,24.02,11111222 
SCCF RECON,ioos:station:SCCF:56:1,2019-03-13T13:00:00Z,26.4645,-82.1044,1.64,23.89,11111222 
SCCF RECON,ioos:station:SCCF:56:1,2019-03-13T14:00:00Z,26.4645,-82.1044,1.64,23.96,11111222 
SCCF RECON,ioos:station:SCCF:56:1,2019-03-13T15:00:00Z,26.4645,-82.1044,1.64,24.07,11111222 
SCCF RECON,ioos:station:SCCF:56:1,2019-03-13T16:00:00Z,26.4645,-82.1044,1.64,24.24,11111222 
SCCF RECON,ioos:station:SCCF:56:1,2019-03-13T17:00:00Z,26.4645,-82.1044,1.64,24.73,11111222 
SCCF RECON,ioos:station:SCCF:56:1,2019-03-13T18:00:00Z,26.4645,-82.1044,1.64,25.42,11111222 
SCCF RECON,ioos:station:SCCF:56:1,2019-03-13T19:00:00Z,26.4645,-82.1044,1.64,25.57,11111222 
SCCF RECON,ioos:station:SCCF:56:1,2019-03-13T20:00:00Z,26.4645,-82.1044,1.64,25.67,11111222 
SCCF RECON,ioos:station:SCCF:56:1,2019-03-13T21:00:00Z,26.4645,-82.1044,1.64,25.82,11111222 
SCCF RECON,ioos:station:SCCF:56:1,2019-03-13T22:00:00Z,26.4645,-82.1044,1.64,25.6,11111222 
SCCF RECON,ioos:station:SCCF:56:1,2019-03-13T23:00:00Z,26.4645,-82.1044,1.64,25.62,11111222 
SCCF RECON,ioos:station:SCCF:56:1,2019-03-14T04:00:00Z,26.4645,-82.1044,1.64,25.24,11111222 
SCCF RECON,ioos:station:SCCF:56:1,2019-03-14T05:00:00Z,26.4645,-82.1044,1.64,25.05,11111222 
SCCF RECON,ioos:station:SCCF:56:1,2019-03-14T06:00:00Z,26.4645,-82.1044,1.64,24.88,11111222 
SCCF RECON,ioos:station:SCCF:56:1,2019-03-14T07:00:00Z,26.4645,-82.1044,1.64,24.65,11111222 
SCCF RECON,ioos:station:SCCF:56:1,2019-03-14T08:00:00Z,26.4645,-82.1044,1.64,24.44,11111222 
SCCF RECON,ioos:station:SCCF:56:1,2019-03-14T09:00:00Z,26.4645,-82.1044,1.64,23.94,11111222 
SCCF RECON,ioos:station:SCCF:56:1,2019-03-14T10:00:00Z,26.4645,-82.1044,1.64,24.0,11111222 
SCCF RECON,ioos:station:SCCF:56:1,2019-03-14T11:00:00Z,26.4645,-82.1044,1.64,23.98,11111222 
SCCF RECON,ioos:station:SCCF:56:1,2019-03-14T12:00:00Z,26.4645,-82.1044,1.64,23.87,11111222 
SCCF RECON,ioos:station:SCCF:56:1,2019-03-14T13:00:00Z,26.4645,-82.1044,1.64,23.87,11111222 